Regional Weather Roundup
Issued by NWS

Home | Current Version | Previous Version | Text Only | Print | Product List | Glossary Off
Versions: 1 2 3 4 5 6 7 8 9 10 11 12 13 14 15 16 17 18 19 20 21 22 23 24 25 26 27 28

000
ASUS45 KTFX 240410
RWRMT
MONTANA REGIONAL WEATHER ROUNDUP
NATIONAL WEATHER SERVICE GREAT FALLS MT
1000 PM MDT FRI JUN 23 2017

NOTE: "FAIR" INDICATES FEW OR NO CLOUDS BELOW 12000 FEET WITH NO
SIGNIFICANT WEATHER AND/OR OBSTRUCTIONS TO VISIBILITY.

MTZ001>007-043-240500-
WEST OF THE DIVIDE

CITY           SKY/WX    TMP DP  RH WIND       PRES   REMARKS
KALISPELL      CLEAR     60  47  61 MISG      30.19R
MISSOULA       CLEAR     65  37  35 NW7       30.18R
BUTTE          CLEAR     62  32  32 VRB3      30.30R
MULLAN PASS    CLEAR     53  28  38 NW6       30.32S
ANACONDA         N/A     57  30  35 NW3       30.27R
DEER LODGE       N/A     59  37  44 N7        30.28R
EUREKA           N/A     63  43  48 MISG      30.18R
$$

MTZ008-052>055-240500-
SOUTHWEST MONTANA

CITY           SKY/WX    TMP DP  RH WIND       PRES   REMARKS
BOZEMAN        CLEAR     56  38  50 NE7       30.25R
DILLON         CLEAR     56  39  53 NE8       30.24R
W YELLOWSTONE  CLEAR     54  27  35 NE6       30.32R
ENNIS          CLEAR     55  36  47 N12       30.32R
THREE FORKS      N/A     59  43  55 CALM      30.22R
$$

MTZ009-010-012-014-046-048-049-054-240500-
EAST SLOPES AND CENTRAL MONTANA

CITY           SKY/WX    TMP DP  RH WIND       PRES   REMARKS
CUT BANK       CLOUDY    56  41  57 NE6       30.30R
GREAT FALLS    CLOUDY    60  37  42 NE7       30.30R
MALMSTROM AFB  CLOUDY    60  38  43 NE5       30.29R
HELENA         CLEAR     60  39  45 NW6       30.26R
CHOTEAU          N/A     55  43  62 N6        30.32R
$$

MTZ011-013-016-021-045-047-050-051-240500-
NORTH CENTRAL MONTANA

CITY           SKY/WX    TMP DP  RH WIND       PRES   REMARKS
HAVRE          CLEAR     58  34  40 NW5       30.24R
LEWISTOWN      CLEAR     54  37  52 CALM      30.30R
N BAR RANCH      N/A     50  34  53 W6        30.33R
CHINOOK          N/A     57  36  44 W3        30.22R
FORT BENTON      N/A     61  37  41 MISG      30.28R
$$

MTZ017>020-022>027-061-062-240500-
NORTHEAST MONTANA

CITY           SKY/WX    TMP DP  RH WIND       PRES   REMARKS
GLASGOW        CLEAR     57  29  34 NW5       30.19R
JORDAN           N/A     56  30  37 N7        30.22R
SIDNEY         CLEAR     53  33  46 NW7       30.16R
WOLF POINT     CLEAR     52  32  46 NW8       30.17R HAZE
MALTA          CLEAR     55  34  44 NW5       30.20S
PLENTYWOOD       N/A     52  36  54 NE15      30.15R
$$

MTZ028>42-056>058-240500-
SOUTHCENTRAL AND SOUTHEAST MONTANA

CITY           SKY/WX    TMP DP  RH WIND       PRES   REMARKS
BAKER          CLEAR     55  30  38 NW8       30.21R
BILLINGS       CLOUDY    62  36  37 E6        30.27R
LIVINGSTON     CLEAR     57  39  51 E13       30.28R
MILES CITY     CLEAR     59  26  28 NW7       30.21R
BIG TIMBER     CLEAR     55  37  50 NE5       30.33R
FORSYTH          N/A     63  30  29 CALM      30.23R
ROUNDUP          N/A     59  30  33 NW3       30.17R
$$

REGIONAL REPORTS...DAKOTAS

CITY           SKY/WX    TMP DP  RH WIND       PRES   REMARKS
WILLISTON      CLOUDY    56  39  53 W7        30.14R
MINOT          PTCLDY    52  37  56 W7        30.07R
DICKINSON      CLOUDY    49  32  52 W6        30.14R
BEACH          MOCLDY    48  30  49 NW7       30.21S
CROSBY         MOCLDY    52  36  54 N10       30.15R
TIOGA          MOCLDY    52  37  58 NW13      30.13R
WATFORD CITY     N/A     52  39  62 NW5       30.13R
BISMARCK       CLEAR     55  36  48 W5        30.11S
GRAND FORKS    CLOUDY    56  42  59 NW10      29.98R
FARGO          CLOUDY    58  41  53 NW16      30.01R
BUFFALO SD       N/A     56  29  35 NW13      30.15R
RAPID CITY     CLEAR     49  28  44 NW10      30.23R
$$

REGIONAL REPORTS...WYOMING/IDAHO/WASHINGTON

CITY           SKY/WX    TMP DP  RH WIND       PRES   REMARKS
GILLETTE       PTCLDY    46  36  68 CALM      30.28R
SHERIDAN       CLOUDY    54  38  54 NW7       30.28R
BUFFALO WY     CLOUDY    53  36  52 W8        30.32R
CODY           CLEAR     57  32  38 NW3       30.32
YELLOWSTONE LA   N/A     49  25  39 NW3       30.40R
IDAHO FALLS    CLEAR     60  44  55 CALM      30.21R
SALMON         CLEAR     63  37  39 CALM      30.17R
BOISE          CLEAR     74  32  21 W5        30.11R
SPOKANE        CLEAR     76  33  21 E3        30.18R
$$

REGIONAL REPORTS...ALBERTA

CITY           SKY/WX    TMP DP  RH WIND       PRES   REMARKS
EDMONTON       CLEAR     57  41  54 E2        30.22R
CALGARY        MOCLDY    59  37  44 N5        30.28R
LETHBRIDGE     MOCLDY    57  41  54 SE3       30.26R
MEDICINE HAT   CLEAR     59  43  55 N7        30.22R
WATERTON GATE    N/A     50  43  76 N3          N/A
CARDSTON         N/A     57  43  58 SE3         N/A
MILK RIVER       N/A     52  43  71 NW1         N/A
$$

REGIONAL REPORTS...SASKATCHEWAN

CITY           SKY/WX    TMP DP  RH WIND       PRES   REMARKS
SWIFT CURRENT  CLEAR     50  43  76 NW8       30.18R
REGINA         MOCLDY    46  37  71 NW8       30.16R
SASKATOON      PTCLDY    46  41  81 E7        30.20R
CYPRESS HILLS    N/A     50  36  57 NW2         N/A
VAL MARIE        N/A     48  36  61 NW3         N/A
ROCKGLEN         N/A     52  37  58 N9          N/A
ASSINIBOIA       N/A     55  43  62 N1          N/A
$$




USA.gov is the U.S. government's official web portal to all federal, state and local government web resources and services.